• In Netherlands
  • List of Countries
  • For 7 days
  • Water Temperature
  • Satellite Maps
  • Weather Map
  • Weather Widgets
  • user-avatar
    Login

    Hourly Weather Kotonu

    Today, 21 August, Monday

    Time Temperature Precipitation Wind Pressure Humidity
    00:00 +26°C° 0 mm 4 mps 760 mmHg 86%
    01:00 +25°C° 0 mm 4 mps 760 mmHg 87%
    02:00 +25°C° 0 mm 4 mps 760 mmHg 88%
    03:00 +25°C° 0 mm 4 mps 760 mmHg 88%
    04:00 +25°C° 0 mm 4 mps 760 mmHg 89%
    05:00 +25°C° 0 mm 4 mps 760 mmHg 89%
    06:00 +25°C° 0 mm 4 mps 760 mmHg 90%
    07:00 +26°C° 0 mm 4 mps 760 mmHg 83%
    08:00 +28°C° 0 mm 4 mps 761 mmHg 77%
    09:00 +29°C° 0 mm 4 mps 761 mmHg 71%
    10:00 +29°C° 0 mm 5 mps 760 mmHg 68%
    11:00 +30°C° 0 mm 5 mps 760 mmHg 66%
    12:00 +32°C° 0 mm 5 mps 759 mmHg 64%
    13:00 +32°C° 0 mm 5 mps 759 mmHg 64%
    14:00 +32°C° 0 mm 5 mps 758 mmHg 64%
    15:00 +32°C° 0 mm 6 mps 758 mmHg 63%
    16:00 +29°C° 0 mm 5 mps 758 mmHg 68%
    17:00 +28°C° 0 mm 5 mps 758 mmHg 73%
    18:00 +27°C° 0 mm 5 mps 758 mmHg 78%
    19:00 +27°C° 0 mm 4 mps 759 mmHg 79%
    20:00 +26°C° 0 mm 4 mps 760 mmHg 80%
    21:00 +26°C° 0 mm 4 mps 760 mmHg 81%
    22:00 +26°C° 0 mm 4 mps 760 mmHg 82%
    23:00 +26°C° 0 mm 4 mps 760 mmHg 82%

    Tomorrow, 22 August, Tuesday

    Time Temperature Precipitation Wind Pressure Humidity
    00:00 +26°C° 0 mm 4 mps 760 mmHg 83%
    01:00 +26°C° 0 mm 4 mps 760 mmHg 83%
    02:00 +26°C° 0 mm 4 mps 759 mmHg 83%
    03:00 +26°C° 0 mm 4 mps 759 mmHg 83%
    04:00 +26°C° 0 mm 4 mps 760 mmHg 84%
    05:00 +25°C° 0 mm 3 mps 760 mmHg 84%
    06:00 +25°C° 0 mm 3 mps 760 mmHg 84%
    07:00 +26°C° 0.1 mm 3 mps 761 mmHg 80%
    08:00 +27°C° 0.1 mm 4 mps 761 mmHg 76%
    09:00 +28°C° 0.1 mm 4 mps 762 mmHg 72%
    10:00 +29°C° 0.1 mm 4 mps 761 mmHg 69%
    11:00 +29°C° 0.1 mm 5 mps 761 mmHg 67%
    12:00 +30°C° 0.1 mm 5 mps 760 mmHg 64%
    13:00 +30°C° 0.1 mm 5 mps 759 mmHg 62%
    14:00 +32°C° 0.1 mm 5 mps 759 mmHg 60%
    15:00 +32°C° 0.1 mm 5 mps 758 mmHg 58%
    16:00 +30°C° 0 mm 5 mps 758 mmHg 62%
    17:00 +29°C° 0 mm 5 mps 758 mmHg 67%
    18:00 +27°C° 0 mm 4 mps 758 mmHg 72%
    19:00 +27°C° 0 mm 4 mps 759 mmHg 73%
    20:00 +27°C° 0 mm 4 mps 760 mmHg 75%
    21:00 +27°C° 0 mm 4 mps 760 mmHg 76%
    22:00 +26°C° 0 mm 4 mps 760 mmHg 78%
    23:00 +26°C° 0 mm 4 mps 759 mmHg 80%

    Day after tomorrow, 23 August, Wednesday

    Time Temperature Precipitation Wind Pressure Humidity
    00:00 +26°C° 0 mm 5 mps 759 mmHg 81%
    01:00 +26°C° 0 mm 5 mps 759 mmHg 82%
    02:00 +25°C° 0 mm 4 mps 759 mmHg 84%
    03:00 +25°C° 0 mm 4 mps 758 mmHg 85%
    04:00 +25°C° 0 mm 4 mps 759 mmHg 85%
    05:00 +25°C° 0 mm 4 mps 759 mmHg 84%
    06:00 +25°C° 0 mm 4 mps 760 mmHg 84%
    07:00 +26°C° 0 mm 4 mps 760 mmHg 81%
    08:00 +27°C° 0 mm 4 mps 760 mmHg 77%
    09:00 +28°C° 0 mm 4 mps 761 mmHg 74%
    10:00 +29°C° 0 mm 4 mps 760 mmHg 66%
    11:00 +32°C° 0 mm 4 mps 760 mmHg 59%
    12:00 +34°C° 0 mm 4 mps 760 mmHg 52%
    13:00 +33°C° 0 mm 4 mps 759 mmHg 53%
    14:00 +33°C° 0 mm 4 mps 758 mmHg 54%
    15:00 +33°C° 0 mm 5 mps 758 mmHg 55%
    16:00 +32°C° 0 mm 5 mps 758 mmHg 61%
    17:00 +29°C° 0 mm 4 mps 758 mmHg 67%
    18:00 +28°C° 0 mm 4 mps 758 mmHg 73%
    19:00 +27°C° 0 mm 4 mps 759 mmHg 75%
    20:00 +27°C° 0 mm 4 mps 759 mmHg 77%
    21:00 +26°C° 0 mm 4 mps 760 mmHg 78%
    22:00 +26°C° 0 mm 4 mps 760 mmHg 79%
    23:00 +26°C° 0 mm 4 mps 759 mmHg 80%

    24 August, Thursday

    Time Temperature Precipitation Wind Pressure Humidity
    00:00 +26°C° 0 mm 4 mps 759 mmHg 80%
    01:00 +26°C° 0 mm 4 mps 759 mmHg 81%
    02:00 +26°C° 0 mm 4 mps 758 mmHg 81%
    03:00 +26°C° 0 mm 4 mps 758 mmHg 82%
    04:00 +26°C° 0 mm 4 mps 758 mmHg 83%
    05:00 +25°C° 0 mm 3 mps 759 mmHg 84%
    06:00 +25°C° 0 mm 3 mps 759 mmHg 84%
    07:00 +27°C° 0 mm 3 mps 760 mmHg 78%
    08:00 +28°C° 0 mm 3 mps 760 mmHg 71%
    09:00 +30°C° 0 mm 3 mps 761 mmHg 64%
    10:00 +31°C° 0 mm 3 mps 760 mmHg 61%
    11:00 +33°C° 0 mm 4 mps 760 mmHg 58%
    12:00 +34°C° 0 mm 4 mps 760 mmHg 55%
    13:00 +33°C° 0.1 mm 5 mps 759 mmHg 55%
    14:00 +33°C° 0.1 mm 5 mps 758 mmHg 56%
    15:00 +33°C° 0.1 mm 5 mps 758 mmHg 56%
    16:00 +30°C° 0 mm 5 mps 758 mmHg 62%
    17:00 +29°C° 0 mm 5 mps 758 mmHg 67%
    18:00 +27°C° 0 mm 4 mps 759 mmHg 72%
    19:00 +27°C° 0 mm 4 mps 759 mmHg 74%
    20:00 +27°C° 0 mm 4 mps 759 mmHg 76%
    21:00 +26°C° 0 mm 4 mps 760 mmHg 78%
    22:00 +26°C° 0 mm 4 mps 760 mmHg 79%
    23:00 +26°C° 0 mm 4 mps 759 mmHg 80%

    25 August, Friday

    Time Temperature Precipitation Wind Pressure Humidity
    00:00 +26°C° 0 mm 4 mps 759 mmHg 81%
    01:00 +26°C° 0 mm 4 mps 759 mmHg 82%
    02:00 +26°C° 0 mm 4 mps 759 mmHg 82%
    03:00 +25°C° 0 mm 4 mps 758 mmHg 83%
    04:00 +25°C° 0 mm 4 mps 758 mmHg 83%
    05:00 +25°C° 0 mm 4 mps 759 mmHg 84%
    06:00 +25°C° 0 mm 4 mps 759 mmHg 84%
    07:00 +27°C° 0 mm 4 mps 759 mmHg 78%
    08:00 +28°C° 0 mm 4 mps 760 mmHg 72%
    09:00 +30°C° 0 mm 4 mps 760 mmHg 66%
    10:00 +30°C° 0 mm 4 mps 760 mmHg 63%
    11:00 +32°C° 0 mm 5 mps 759 mmHg 60%
    12:00 +33°C° 0 mm 5 mps 759 mmHg 57%
    13:00 +33°C° 0.1 mm 5 mps 758 mmHg 58%
    14:00 +33°C° 0.1 mm 6 mps 758 mmHg 58%
    15:00 +33°C° 0.1 mm 6 mps 757 mmHg 59%
    16:00 +30°C° 0.1 mm 6 mps 757 mmHg 64%
    17:00 +29°C° 0.1 mm 6 mps 757 mmHg 70%
    18:00 +28°C° 0.1 mm 6 mps 758 mmHg 75%
    19:00 +27°C° 0.6 mm 5 mps 758 mmHg 79%
    20:00 +26°C° 0.6 mm 5 mps 759 mmHg 83%
    21:00 +26°C° 0.6 mm 5 mps 759 mmHg 87%
    22:00 +26°C° 0.2 mm 5 mps 759 mmHg 87%
    23:00 +26°C° 0.2 mm 4 mps 759 mmHg 87%

    26 August, Saturday

    Time Temperature Precipitation Wind Pressure Humidity
    00:00 +26°C° 0.2 mm 4 mps 759 mmHg 87%
    01:00 +26°C° 0 mm 4 mps 759 mmHg 87%
    02:00 +26°C° 0 mm 4 mps 758 mmHg 87%
    03:00 +26°C° 0 mm 4 mps 758 mmHg 87%
    04:00 +26°C° 0.1 mm 4 mps 758 mmHg 88%
    05:00 +26°C° 0.1 mm 4 mps 759 mmHg 88%
    06:00 +25°C° 0.1 mm 4 mps 759 mmHg 89%
    07:00 +26°C° 0.1 mm 4 mps 759 mmHg 85%
    08:00 +27°C° 0.1 mm 4 mps 760 mmHg 82%
    09:00 +28°C° 0.1 mm 5 mps 760 mmHg 79%
    10:00 +29°C° 0.3 mm 5 mps 760 mmHg 75%
    11:00 +29°C° 0.3 mm 5 mps 759 mmHg 72%
    12:00 +30°C° 0.3 mm 6 mps 759 mmHg 68%
    13:00 +30°C° 0.2 mm 6 mps 758 mmHg 68%
    14:00 +30°C° 0.2 mm 6 mps 758 mmHg 67%
    15:00 +32°C° 0.2 mm 6 mps 757 mmHg 66%
    16:00 +30°C° 0 mm 6 mps 757 mmHg 70%
    17:00 +29°C° 0 mm 5 mps 758 mmHg 73%
    18:00 +28°C° 0 mm 5 mps 758 mmHg 77%
    19:00 +27°C° 0 mm 5 mps 758 mmHg 79%
    20:00 +27°C° 0 mm 5 mps 759 mmHg 80%
    21:00 +27°C° 0 mm 5 mps 759 mmHg 82%
    22:00 +27°C° 0 mm 5 mps 759 mmHg 83%
    23:00 +26°C° 0 mm 4 mps 759 mmHg 84%
    Show more